Вернуться в каталог

RAPTOR1

АктивенНаукаLEO
NORAD 58957·PAYLOAD·🇺🇸 United States

Запущен Feb 14, 2024 с Cape Canaveral Space Force Station

Loading…

Ближайшие Пролёты (ближайшие 24 часа)

TLE

СвежийSource: Space-Track

Эпоха: Sep 14, 2026, 14:46 UTC

1 58957U 24028C   26257.61570106 -.00000042  00000-0  38734-4 0  9994
2 58957  39.9922 351.0372 0010950  47.8979 312.2699 13.74247741129352

Отслеживайте RAPTOR1 в реальном времени с AllMySat

Download on the App Store